Location: Champaign/Urbana Astronomical Society Observatory
(40.0333°N, 88.2833°W)
Time: 16:11:57
(UTC-05:00)

XW-2D - Visible Passes

Search period start: 22 October 2019 00:00
Search period end: 01 November 2019 00:00
Orbit: 507 x 528 km, 97.5° (Epoch: 22 October)

Date Brightness Start Highest point End Pass type
(mag) Time Alt. Az. Time Alt. Az. Time Alt. Az.
22 Oct ? 06:09:54 10° NE 06:12:58 24° E 06:16:01 10° SSE visible
23 Oct ? 05:56:20 10° NE 05:58:44 16° E 06:01:08 10° SE visible
24 Oct ? 05:43:27 10° ENE 05:44:29 11° E 05:45:31 10° ESE visible
25 Oct ? 19:17:32 10° WSW 19:18:36 11° W 19:19:40 10° WNW visible
26 Oct ? 06:46:51 10° NNE 06:50:35 75° ESE 06:54:18 10° S visible
26 Oct ? 19:01:55 10° SW 19:04:21 16° W 19:06:46 10° NW visible
27 Oct ? 06:32:48 10° NNE 06:36:25 47° E 06:40:02 10° S visible
27 Oct ? 18:47:02 10° SSW 18:50:07 24° W 18:53:12 10° NW visible
28 Oct ? 06:18:52 10° NNE 06:22:14 31° E 06:25:35 10° SSE visible
28 Oct ? 18:32:26 10° SSW 18:35:54 35° W 18:39:23 10° NNW visible
29 Oct ? 06:05:07 10° NE 06:08:01 21° E 06:10:54 10° SE visible
29 Oct ? 18:18:03 10° S 18:21:43 55° W 18:25:25 10° NNW visible
30 Oct ? 05:51:40 10° ENE 05:53:46 14° E 05:55:52 10° SE visible
